Perry, IA

1:02 PM CDT on June 22, 2017 (GMT -0500)
Perry Municipal

Weather History for KPRO - February, 2013

Change the Weather History Date:

Thursday, February 14, 2013

  Actual Average Record
Temperature  
Mean Temperature 32 °F -  
Max Temperature 41 °F 33 °F 65 °F (1954)
Min Temperature 22 °F 14 °F -20 °F (1951)
Degree Days  
Heating Degree Days 34    
Moisture  
Dew Point 27 °F    
Average Humidity 79    
Maximum Humidity 88    
Minimum Humidity 63    
Precipitation  
Precipitation 0.00 in - - ()
Sea Level Pressure  
Sea Level Pressure 29.94 in    
Wind  
Wind Speed 14 mph (NW)    
Max Wind Speed 21 mph    
Max Gust Speed 31 mph    
Visibility 10 miles    
Events      
Averages and records for this station are not official NWS values.
T = Trace of Precipitation, MM = Missing Value Source: NWS Daily Summary

Daily Weather History Graph

Daily Weather History Graph

Search for Another Location

Airport or City:

Trip Planner

Search our weather history database for the weather conditions in past years. The results will help you decide how hot, cold, wet, or windy it might be!

Date:

Astronomy

Feb. 14, 2013 Rise Set
Actual Time 7:13 AM CST 5:48 PM CST
Civil Twilight 6:44 AM CST 6:17 PM CST
Nautical Twilight 6:12 AM CST 6:50 PM CST
Astronomical Twilight 5:39 AM CST 7:22 PM CST
Moon 9:10 AM CST (2/14) 10:58 PM CST (2/14)
Length of Visible Light 11h 32m
Length of Day
10h 35m
Waxing Crescent, 22% of the Moon is Illuminated
Feb 14
Waxing Crescent
Feb 17
First Quarter
Feb 25
Full
Mar 4
Last Quarter
Mar 11
New

Hourly Weather History & Observations

Time (CST) Temp. Windchill Dew Point Humidity Pressure Visibility Wind Dir Wind Speed Gust Speed Precip Events Conditions
12:15 AM 35.1 °F 27.4 °F 30.6 °F 84% 29.72 in 10.0 mi West 10.4 mph - N/A   Clear
12:35 AM 37.2 °F 29.1 °F 31.1 °F 79% 29.73 in 10.0 mi WNW 12.7 mph 20.7 mph N/A   Clear
1:15 AM 34.9 °F 26.2 °F 30.9 °F 85% 29.72 in 10.0 mi West 12.7 mph - N/A   Clear
1:35 AM 34.5 °F 24.5 °F 31.1 °F 87% 29.73 in 10.0 mi West 16.1 mph - N/A   Clear
1:55 AM 34.7 °F 24.7 °F 30.9 °F 86% 29.73 in 10.0 mi West 16.1 mph - N/A   Clear
2:15 AM 34.9 °F 24.9 °F 30.7 °F 85% 29.74 in 10.0 mi WNW 16.1 mph - N/A   Clear
2:35 AM 35.6 °F 26.2 °F 30.7 °F 82% 29.75 in 10.0 mi WNW 15.0 mph 24.2 mph N/A   Scattered Clouds
3:15 AM 35.1 °F 25.5 °F 31.1 °F 85% 29.76 in 10.0 mi WNW 15.0 mph - N/A   Clear
3:35 AM 35.1 °F 24.8 °F 31.1 °F 85% 29.76 in 10.0 mi NW 17.3 mph 24.2 mph N/A   Mostly Cloudy
3:55 AM 35.6 °F 24.5 °F 30.6 °F 82% 29.76 in 10.0 mi NW 20.7 mph 27.6 mph N/A   Overcast
4:15 AM 35.6 °F 26.2 °F 30.6 °F 82% 29.77 in 10.0 mi NW 15.0 mph - N/A   Overcast
4:55 AM 35.6 °F 25.9 °F 30.0 °F 80% 29.79 in 10.0 mi NW 16.1 mph - N/A   Overcast
5:15 AM 35.2 °F 26.2 °F 30.2 °F 82% 29.79 in 10.0 mi NW 13.8 mph - N/A   Overcast
5:35 AM 34.3 °F 24.6 °F 29.8 °F 84% 29.81 in 10.0 mi NW 15.0 mph 20.7 mph N/A   Mostly Cloudy
6:15 AM 33.8 °F 22.5 °F 29.3 °F 84% 29.83 in 10.0 mi NNW 19.6 mph 25.3 mph N/A   Overcast
6:35 AM 32.9 °F 22.4 °F 29.3 °F 87% 29.84 in 10.0 mi NNW 16.1 mph - N/A   Overcast
6:55 AM 32.9 °F 23.7 °F 29.3 °F 87% 29.85 in 10.0 mi NW 12.7 mph 18.4 mph N/A   Overcast
7:15 AM 32.7 °F 24.5 °F 29.1 °F 87% 29.85 in 10.0 mi WNW 10.4 mph 16.1 mph N/A   Mostly Cloudy
7:35 AM 32.0 °F 23.0 °F 28.8 °F 88% 29.87 in 10.0 mi WNW 11.5 mph - N/A   Scattered Clouds
7:55 AM 32.0 °F 24.2 °F 28.8 °F 88% 29.88 in 10.0 mi NW 9.2 mph - N/A   Mostly Cloudy
8:15 AM 32.2 °F 23.8 °F 28.9 °F 88% 29.89 in 10.0 mi NW 10.4 mph 16.1 mph N/A   Overcast
8:35 AM 32.4 °F 23.5 °F 28.6 °F 86% 29.90 in 10.0 mi NW 11.5 mph 17.3 mph N/A   Overcast
8:55 AM 32.5 °F 24.8 °F 28.9 °F 87% 29.91 in 10.0 mi NW 9.2 mph - N/A   Overcast
9:15 AM 33.1 °F 24.4 °F 29.3 °F 86% 29.92 in 10.0 mi WNW 11.5 mph - N/A   Overcast
9:35 AM 33.4 °F 26.6 °F 28.8 °F 83% 29.91 in 10.0 mi NW 8.1 mph - N/A   Overcast
9:55 AM 34.3 °F 25.5 °F 29.3 °F 82% 29.92 in 10.0 mi WNW 12.7 mph 16.1 mph N/A   Mostly Cloudy
10:15 AM 34.9 °F 27.1 °F 29.7 °F 81% 29.92 in 10.0 mi NW 10.4 mph 18.4 mph N/A   Mostly Cloudy
10:35 AM 34.9 °F 27.7 °F 29.7 °F 81% 29.92 in 10.0 mi WNW 9.2 mph - N/A   Mostly Cloudy
11:15 AM 38.3 °F 30.5 °F 31.5 °F 76% 29.93 in 10.0 mi WNW 12.7 mph 18.4 mph N/A   Scattered Clouds
11:35 AM 38.8 °F 31.6 °F 31.5 °F 75% 29.92 in 10.0 mi WNW 11.5 mph - N/A   Scattered Clouds
11:55 AM 39.0 °F 31.8 °F 31.6 °F 75% 29.92 in 10.0 mi WNW 11.5 mph 17.3 mph N/A   Mostly Cloudy
12:15 PM 41.0 °F 31.9 °F 31.8 °F 70% 29.93 in 10.0 mi WNW 19.6 mph 24.2 mph N/A   Overcast
12:35 PM 39.2 °F 30.5 °F 31.8 °F 75% 29.93 in 10.0 mi NW 16.1 mph 19.6 mph N/A   Overcast
12:55 PM 39.0 °F 30.6 °F 31.8 °F 75% 29.92 in 10.0 mi WNW 15.0 mph 23.0 mph N/A   Overcast
1:15 PM 39.7 °F 30.6 °F 31.1 °F 71% 29.93 in 10.0 mi WNW 18.4 mph 27.6 mph N/A   Overcast
1:35 PM 40.1 °F 32.0 °F 30.2 °F 68% 29.92 in 10.0 mi WNW 15.0 mph 31.1 mph N/A   Overcast
1:55 PM 39.6 °F 31.0 °F 28.2 °F 64% 29.92 in 10.0 mi NW 16.1 mph 26.5 mph N/A   Overcast
2:15 PM 39.2 °F 30.5 °F 27.7 °F 63% 29.93 in 10.0 mi WNW 16.1 mph 23.0 mph N/A   Overcast
2:35 PM 38.8 °F 28.8 °F 28.0 °F 65% 29.95 in 10.0 mi WNW 20.7 mph 24.2 mph N/A   Overcast
2:55 PM 37.8 °F 28.6 °F 27.9 °F 67% 29.96 in 10.0 mi WNW 16.1 mph 20.7 mph N/A   Overcast
3:15 PM 37.9 °F 28.5 °F 27.9 °F 67% 29.96 in 10.0 mi WNW 17.3 mph 23.0 mph N/A   Overcast
3:35 PM 38.5 °F 29.9 °F 27.7 °F 65% 29.97 in 10.0 mi WNW 15.0 mph 25.3 mph N/A   Overcast
3:55 PM 37.0 °F 28.1 °F 30.6 °F 77% 29.98 in 10.0 mi WNW 15.0 mph - N/A   Overcast
4:15 PM 36.9 °F 28.2 °F 29.3 °F 74% 29.99 in 10.0 mi WNW 13.8 mph 20.7 mph N/A   Overcast
4:35 PM 36.5 °F 28.2 °F 28.9 °F 74% 30.00 in 10.0 mi WNW 12.7 mph 18.4 mph N/A   Overcast
4:55 PM 35.8 °F 26.1 °F 29.1 °F 77% 30.01 in 10.0 mi NW 16.1 mph 23.0 mph N/A   Overcast
5:15 PM 34.5 °F 23.1 °F 28.6 °F 79% 30.02 in 10.0 mi NNW 20.7 mph 25.3 mph N/A   Overcast
5:35 PM 33.8 °F 23.5 °F 27.5 °F 78% 30.03 in 10.0 mi NNW 16.1 mph 20.7 mph N/A   Mostly Cloudy
5:55 PM 32.5 °F 22.3 °F 27.9 °F 83% 30.04 in 10.0 mi NNW 15.0 mph - N/A   Scattered Clouds
6:15 PM 32.0 °F 22.5 °F 27.0 °F 82% 30.05 in 10.0 mi NNW 12.7 mph - N/A   Clear
6:35 PM 31.8 °F 20.2 °F 27.3 °F 83% 30.06 in 10.0 mi NNW 18.4 mph 21.9 mph N/A   Scattered Clouds
6:55 PM 31.6 °F 20.7 °F 26.2 °F 80% 30.07 in 10.0 mi NNW 16.1 mph 21.9 mph N/A   Scattered Clouds
7:15 PM 30.9 °F 19.8 °F 25.0 °F 79% 30.08 in 10.0 mi NNW 16.1 mph 19.6 mph N/A   Scattered Clouds
7:35 PM 30.2 °F 18.9 °F 24.3 °F 79% 30.09 in 10.0 mi NNW 16.1 mph 21.9 mph N/A   Clear
7:55 PM 29.8 °F 19.3 °F 25.0 °F 82% 30.10 in 10.0 mi NNW 13.8 mph - N/A   Clear
8:15 PM 29.3 °F 17.7 °F 23.2 °F 78% 30.10 in 10.0 mi NNW 16.1 mph 20.7 mph N/A   Clear
8:35 PM 28.6 °F 16.4 °F 22.3 °F 77% 30.11 in 10.0 mi NNW 17.3 mph 23.0 mph N/A   Clear
8:55 PM 27.5 °F 15.9 °F 20.3 °F 74% 30.13 in 10.0 mi NNW 15.0 mph 19.6 mph N/A   Clear
9:15 PM 26.6 °F 13.8 °F 18.7 °F 72% 30.14 in 10.0 mi NNW 17.3 mph 25.3 mph N/A   Clear
9:35 PM 25.7 °F 12.7 °F 18.1 °F 73% 30.15 in 10.0 mi NNW 17.3 mph - N/A   Clear
9:55 PM 25.0 °F 10.9 °F 18.9 °F 78% 30.16 in 10.0 mi NNW 19.6 mph 24.2 mph N/A   Clear
10:15 PM 24.3 °F 10.4 °F 17.4 °F 75% 30.17 in 10.0 mi NNW 18.4 mph 25.3 mph N/A   Clear
10:35 PM 23.7 °F 10.1 °F 16.9 °F 75% 30.18 in 10.0 mi NNW 17.3 mph - N/A   Clear
10:55 PM 23.0 °F 9.6 °F 15.6 °F 73% 30.18 in 10.0 mi NNW 16.1 mph 23.0 mph N/A   Clear
11:35 PM 22.6 °F 10.7 °F 14.7 °F 72% 30.20 in 10.0 mi NNW 12.7 mph - N/A   Clear
11:55 PM 22.1 °F 9.5 °F 14.2 °F 72% 30.20 in 10.0 mi NNW 13.8 mph - N/A   Clear